{"data":{"norad_id":87214,"epoch":"2026-05-24T00:18:51.618816Z","epoch_age_seconds":150544,"freshness":"FRESH","line1":"1 87214U          26144.01309744  .00000630  00000+0  59719-3 0  9999","line2":"2 87214 100.3243 163.6712 0069344 194.7106 165.2028 13.84496287622698","mean_motion":13.84496287,"eccentricity":0.0069344,"inclination_deg":100.3243,"raan_deg":163.6712,"arg_perigee_deg":194.7106,"mean_anomaly_deg":165.2028,"bstar":0.00059719,"rev_number":62269,"period_min":104.00894632374,"perigee_km":897.1799111666,"apogee_km":998.78439245926,"semimajor_km":7326.1191518129,"source":"CELESTRAK","updated_at":"2026-05-25T13:38:11.664726Z"}}